Date String (YYYY-MM-DD hh:mm:ss) UTC,Instrument flags,absolute air pressure of the measurement (hPa),sample flow rate (lpm),inlet stack bypass flow (lpm),air temperature of the measurement (°C),ambient temperature measured by the external sensor (°C),aerosol sample conditioner tube jacket temperature (°C),OPC LED temperature (°C),internal box temperature (°C),relative humidity of the measurement (%),span deviation,mass concentration of particles derived from Lorenz-Mie calculation of OPC scattering (μg/m³),mass concentration of particles derived from Lorenz-Mie calculation of OPC scattering (μg/m³),mass concentration of particles derived from Lorenz-Mie calculation of OPC scattering (μg/m³)
DateTimeUTC,F1_M11,P_M11,Q1_M11,Q2_M11,T1_M11,T2_M11,T3_M11,T4_M11,T5_M11,U1_M11,ZSPAN_M11,X0_M11,X2_M11,X1_M11
2024-03-23 23:00:00,SystemResetWarning,0816.6,4.99,000.00,024.8,024.0,000.0,033.4,026.6,13.8,0000.0,0007.59,0002.48,0001.42
2024-03-23 23:01:00,SystemResetWarning,0816.5,5.00,000.00,024.8,024.1,000.0,033.4,026.7,13.6,0000.0,0006.70,0002.47,0001.43
2024-03-23 23:02:00,SystemResetWarning,0816.5,4.99,000.00,024.8,024.1,000.0,033.4,026.7,13.8,0000.0,0006.75,0002.52,0001.43
2024-03-23 23:03:00,SystemResetWarning,0816.4,5.00,000.00,024.8,024.1,000.0,033.4,026.6,14.1,0000.0,0006.53,0002.47,0001.43
2024-03-23 23:04:00,SystemResetWarning,0816.5,5.00,000.00,024.8,024.1,000.0,033.4,026.6,13.8,0000.0,0006.22,0002.41,0001.43
2024-03-23 23:05:00,SystemResetWarning,0816.3,5.00,000.00,024.8,024.1,000.0,033.4,026.6,13.9,0000.0,0006.39,0002.44,0001.44
2024-03-23 23:06:00,SystemResetWarning,0816.4,5.00,000.00,024.8,024.1,000.0,033.4,026.6,13.7,0000.0,0006.18,0002.42,0001.44
2024-03-23 23:07:00,SystemResetWarning,0816.3,5.00,000.00,024.8,024.1,000.0,033.3,026.6,13.7,0000.0,0007.05,0002.33,0001.42
2024-03-23 23:08:00,SystemResetWarning,0816.3,5.00,000.00,024.8,024.1,000.0,033.3,026.6,13.6,0000.0,0006.84,0002.33,0001.42
2024-03-23 23:09:00,SystemResetWarning,0816.2,5.00,000.00,024.8,024.1,000.0,033.3,026.6,13.7,0000.0,0007.04,0002.35,0001.40
2024-03-23 23:10:00,SystemResetWarning,0816.2,4.99,000.00,024.8,024.1,000.0,033.3,026.6,13.8,0000.0,0007.00,0002.37,0001.39
2024-03-23 23:11:00,SystemResetWarning,0816.2,4.99,000.00,024.8,024.1,000.0,033.3,026.6,14.0,0000.0,0007.10,0002.42,0001.38
2024-03-23 23:12:00,SystemResetWarning,0816.2,5.01,000.00,024.8,024.1,000.0,033.3,026.6,13.6,0000.0,0007.15,0002.42,0001.38
2024-03-23 23:13:00,SystemResetWarning,0816.2,5.01,000.00,024.8,024.1,000.0,033.3,026.6,13.6,0000.0,0006.99,0002.37,0001.39
2024-03-23 23:14:00,SystemResetWarning,0816.3,5.00,000.00,024.8,024.1,000.0,033.3,026.6,13.8,0000.0,0006.93,0002.34,0001.38
2024-03-23 23:15:00,SystemResetWarning,0816.3,5.01,000.00,024.8,024.1,000.0,033.3,026.6,13.7,0000.0,0006.83,0002.25,0001.36
2024-03-23 23:16:00,SystemResetWarning,0816.2,4.99,000.00,024.8,024.1,000.0,033.3,026.7,13.7,0000.0,0006.65,0002.19,0001.35
2024-03-23 23:17:00,SystemResetWarning,0816.2,5.00,000.00,024.8,024.1,000.0,033.3,026.7,13.9,0000.0,0006.41,0002.16,0001.33
2024-03-23 23:18:00,SystemResetWarning,0816.2,5.00,000.00,024.8,024.1,000.0,033.3,026.7,14.1,0000.0,0005.04,0002.20,0001.33
2024-03-23 23:19:00,SystemResetWarning,0816.2,4.99,000.00,024.8,024.1,000.0,033.3,026.7,13.9,0000.0,0005.07,0002.24,0001.32
2024-03-23 23:20:00,SystemResetWarning,0816.1,5.00,000.00,024.9,024.1,000.0,033.4,026.7,13.9,0000.0,0004.88,0002.23,0001.32
2024-03-23 23:21:00,SystemResetWarning,0816.2,5.00,000.00,024.9,024.2,000.0,033.4,026.7,13.9,0000.0,0004.46,0002.19,0001.31
2024-03-23 23:22:00,SystemResetWarning,0816.2,5.00,000.00,024.9,024.2,000.0,033.4,026.7,13.9,0000.0,0004.47,0002.22,0001.31
2024-03-23 23:23:00,SystemResetWarning,0816.1,5.00,000.00,024.9,024.2,000.0,033.4,026.7,13.6,0000.0,0004.39,0002.23,0001.32
2024-03-23 23:24:00,SystemResetWarning,0816.1,5.01,000.00,024.9,024.2,000.0,033.4,026.7,13.7,0000.0,0004.40,0002.23,0001.31
2024-03-23 23:25:00,SystemResetWarning,0816.1,5.00,000.00,024.9,024.2,000.0,033.4,026.7,13.8,0000.0,0004.41,0002.23,0001.31
2024-03-23 23:26:00,SystemResetWarning,0816.2,4.99,000.00,024.9,024.2,000.0,033.4,026.7,13.6,0000.0,0004.51,0002.27,0001.32
2024-03-23 23:27:00,SystemResetWarning,0816.1,5.00,000.00,024.9,024.2,000.0,033.4,026.7,13.8,0000.0,0004.46,0002.32,0001.33
2024-03-23 23:28:00,SystemResetWarning,0816.1,5.01,000.00,024.9,024.2,000.0,033.4,026.7,13.7,0000.0,0004.72,0002.38,0001.34
2024-03-23 23:29:00,SystemResetWarning,0816.2,5.01,000.00,024.9,024.2,000.0,033.4,026.7,13.6,0000.0,0004.48,0002.35,0001.35
2024-03-23 23:30:00,SystemResetWarning,0816.1,5.00,000.00,024.9,024.2,000.0,033.4,026.7,13.6,0000.0,0004.65,0002.35,0001.36
2024-03-23 23:31:00,SystemResetWarning,0816.1,4.99,000.00,024.9,024.2,000.0,033.4,026.8,13.7,0000.0,0005.29,0002.41,0001.36
2024-03-23 23:32:00,SystemResetWarning,0816.1,5.00,000.00,024.9,024.2,000.0,033.4,026.8,13.9,0000.0,0005.50,0002.46,0001.36
2024-03-23 23:33:00,SystemResetWarning,0816.1,5.00,000.00,024.9,024.2,000.0,033.4,026.8,13.6,0000.0,0006.30,0002.48,0001.37
2024-03-23 23:34:00,SystemResetWarning,0816.0,5.00,000.00,024.9,024.3,000.0,033.4,026.8,13.5,0000.0,0006.22,0002.43,0001.37
2024-03-23 23:35:00,SystemResetWarning,0816.0,5.00,000.00,024.9,024.3,000.0,033.4,026.8,13.7,0000.0,0007.54,0002.41,0001.37
2024-03-23 23:36:00,SystemResetWarning,0816.0,5.00,000.00,025.0,024.3,000.0,033.4,026.8,13.7,0000.0,0007.64,0002.42,0001.37
2024-03-23 23:37:00,SystemResetWarning,0816.0,5.00,000.00,025.0,024.3,000.0,033.4,026.8,13.7,0000.0,0007.81,0002.44,0001.37
2024-03-23 23:38:00,SystemResetWarning,0816.0,5.00,000.00,025.0,024.3,000.0,033.4,026.8,13.8,0000.0,0008.26,0002.40,0001.37
2024-03-23 23:39:00,SystemResetWarning,0815.9,5.00,000.00,025.0,024.3,000.0,033.4,026.8,13.7,0000.0,0008.20,0002.40,0001.37
2024-03-23 23:40:00,SystemResetWarning,0815.8,5.01,000.00,025.0,024.3,000.0,033.4,026.8,13.7,0000.0,0008.21,0002.39,0001.38
2024-03-23 23:41:00,SystemResetWarning,0815.9,5.00,000.00,025.0,024.3,000.0,033.5,026.8,13.7,0000.0,0008.13,0002.36,0001.38
2024-03-23 23:42:00,SystemResetWarning,0815.9,4.99,000.00,025.0,024.3,000.0,033.5,026.8,13.4,0000.0,0007.72,0002.31,0001.38
2024-03-23 23:43:00,SystemResetWarning,0815.9,4.99,000.00,025.0,024.3,000.0,033.5,026.9,13.4,0000.0,0007.67,0002.24,0001.38
2024-03-23 23:44:00,SystemResetWarning,0815.8,5.00,000.00,025.0,024.3,000.0,033.5,026.9,13.4,0000.0,0007.13,0002.18,0001.38
2024-03-23 23:45:00,SystemResetWarning,0815.8,5.01,000.00,025.0,024.3,000.0,033.5,026.9,13.6,0000.0,0007.23,0002.20,0001.37
2024-03-23 23:46:00,SystemResetWarning,0815.8,5.00,000.00,025.0,024.3,000.0,033.5,026.9,13.7,0000.0,0006.08,0002.17,0001.37
2024-03-23 23:47:00,SystemResetWarning,0815.7,5.00,000.00,025.0,024.4,000.0,033.5,026.9,13.9,0000.0,0005.58,0002.16,0001.38
2024-03-23 23:48:00,SystemResetWarning,0815.8,5.00,000.00,025.0,024.4,000.0,033.5,026.9,13.8,0000.0,0005.86,0002.17,0001.38
2024-03-23 23:49:00,SystemResetWarning,0815.7,4.99,000.00,025.0,024.4,000.0,033.5,026.9,14.0,0000.0,0005.21,0002.17,0001.38
2024-03-23 23:50:00,SystemResetWarning,0815.7,4.99,000.00,025.1,024.4,000.0,033.5,026.9,14.2,0000.0,0005.53,0002.16,0001.37
2024-03-23 23:51:00,SystemResetWarning,0815.7,5.01,000.00,025.1,024.4,000.0,033.5,026.9,14.2,0000.0,0005.41,0002.11,0001.36
2024-03-23 23:52:00,SystemResetWarning,0815.8,5.01,000.00,025.1,024.4,000.0,033.5,026.9,14.2,0000.0,0005.72,0002.20,0001.36
2024-03-23 23:53:00,SystemResetWarning,0815.8,5.00,000.00,025.1,024.4,000.0,033.5,026.9,14.3,0000.0,0005.76,0002.24,0001.35
2024-03-23 23:54:00,SystemResetWarning,0815.7,4.99,000.00,025.1,024.4,000.0,033.5,027.0,13.8,0000.0,0006.00,0002.30,0001.35
2024-03-23 23:55:00,SystemResetWarning,0815.7,5.00,000.00,025.1,024.4,000.0,033.6,027.0,14.1,0000.0,0006.20,0002.36,0001.35
2024-03-23 23:56:00,SystemResetWarning,0815.7,5.01,000.00,025.1,024.4,000.0,033.6,027.0,13.8,0000.0,0005.98,0002.36,0001.35
2024-03-23 23:57:00,SystemResetWarning,0815.6,5.00,000.00,025.1,024.4,000.0,033.6,027.0,13.9,0000.0,0005.80,0002.37,0001.34
2024-03-23 23:58:00,SystemResetWarning,0815.6,5.01,000.00,025.1,024.4,000.0,033.6,027.0,13.8,0000.0,0006.09,0002.43,0001.34
2024-03-23 23:59:00,SystemResetWarning,0815.6,5.00,000.00,025.1,024.5,000.0,033.6,027.0,14.0,0000.0,0006.11,0002.46,0001.34
